SCP
0 0 0 0 0 0 0 0 0 0 0 0 0 0 0 0 0 0 0 0 0 0 0 0 -0 -0 0 0 0 0 0 0 0 0 0 0 0 0 0 0 0 0 0 0
0 0 0 0 0 0 0 0 0 0 0 0 0 0 0 0 0 0 0 0 0 0 0 -0 -0 -0 0 0 0 0 0 0 0 0 0 0 0 0 0 0 0 0 0 0
0 0 0 0 0 0 0 0 0 0 0 0 0 0 0 0 0 0 0 0 0 0 0 0 0 0 0 0 0 0 0 0 0 0 0 0 0 0 0 0 0 0 0 0
0 0 0 0 0 0 0 0 0 0 0 0 0 0 0 0 0 0 0 0 0 0 0 0 0 0 0 0 0 0 0 0 0 0 0 0 0 0 0 0 0 0 0 0
0 0 0 0 0 0 0 0 0 0 0 0 0 0 0 0 0 0 0 0 0 0 0 0 0 0 0 0 0 0 0 0 0 0 0 0 0 0 0 0 0 0 0 0
0 0 0 0 0 0 0 0 0 0 0 0 0 0 0 0 0 0 0 0 0 0 0 0 0 0 0 0 0 0 0 0 0 0 0 0 0 0 0 0 0 0 0 0
0 0 0 0 0 0 0 0 0 0 0 0 0 0 0 0 0 0 0 0 0 0 0 0 0 0 0 0 0 0 0 0 0 0 0 0 0 0 0 0 0 0 0 0
0 0 0 0 0 0 0 0 0 0 0 0 0 0 0 0 0 0 0 0 0 0 0 0 0 0 0 0 0 0 0 0 0 0 0 0 0 0 0 0 0 0 0 0
0 0 0 0 0 0 0 0 0 0 0 0 0 0 0 0 0 0 0 0 0 0 0 0 0 0 0 0 0 0 0 0 0 0 0 0 0 0 0 0 0 0 0 0
0 0 0 0 0 0 0 0 0 0 0 0 0 0 0 0 0 0 0 0 0 0 0 0 0 0 0 0 0 0 0 0 0 0 0 0 0 0 0 0 0 0 0 0
0 0 0 0 0 0 0 0 0 0 0 0 0 0 0 0 0 0 0 0 0 0 0 0 0 0 0 0 0 0 0 0 0 0 0 0 0 0 0 0 0 0 0 0
0 0 0 0 0 0 0 0 0 0 0 0 0 0 0 0 0 0 0 0 0 0 0 0 0 0 0 0 0 0 0 0 0 0 0 0 0 0 0 0 0 0 0 0
0 0 0 0 0 0 0 0 0 0 0 0 0 0 0 0 0 0 0 0 0 0 0 0 0 0 0 0 0 0 0 0 0 0 0 0 0 0 0 0 0 0 0 0
0 0 0 0 0 0 0 0 0 0 0 0 0 0 0 0 0 0 0 0 0 0 0 0 0 0 0 0 0 0 0 0 0 0 0 0 0 0 0 0 0 0 0 0
0 0 0 0 0 0 0 0 0 0 0 0 0 0 0 0 0 0 0 0 0 0 0 0 0 0 0 0 0 0 0 0 0 0 0 0 0 0 0 0 0 0 0 0
0 0 0 0 0 0 0 0 0 0 0 0 0 0 0 0 0 0 0 0 0 0 0 0 0 0 0 0 0 0 0 0 0 0 0 0 0 0 0 0 0 0 0 0
0 0 0 0 0 0 0 0 0 0 0 0 0 0 0 0 0 0 0 0 0 0 0 0 0 0 0 0 0 0 0 0 0 0 0 0 0 0 0 0 0 0 0 0
0 0 0 0 0 0 0 0 0 0 0 0 0 0 0 0 0 0 0 0 0 0 0 0 0 0 0 0 0 0 0 0 0 0 0 0 0 0 0 0 0 0 0 0
0 0 0 0 0 0 0 0 0 0 0 0 0 0 0 0 0 0 0 0 0 0 0 0 0 0 0 0 0 0 0 0 0 0 0 0 0 0 0 0 0 0 0 0
0 0 0 0 0 0 0 0 0 0 0 0 0 0 0 0 0 0 0 0 0 0 0 0 0 0 0 0 0 0 0 0 0 0 0 0 0 0 0 0 0 0 0 0
0 0 0 0 0 0 0 0 0 0 0 0 0 0 0 0 0 0 0 0 0 0 0 0 0 0 0 0 0 0 0 0 0 0 0 0 0 0 0 0 0 0 0 0
0 0 0 0 0 0 0 0 0 0 0 0 0 0 0 0 0 0 0 0 0 0 0 0 0 0 0 0 0 0 0 0 0 0 0 0 0 0 0 0 0 0 0 0
0 0 0 0 0 0 0 0 0 0 0 0 0 0 0 0 0 0 0 0 0 0 0 0 0 0 0 0 0 0 0 0 0 0 0 0 0 0 0 0 0 0 0 0
0 0 0 0 0 0 0 0 0 0 0 0 0 0 0 0 0 0 0 0 0 0 0 0 0 0 0 0 0 0 0 0 0 0 0 0 0 0 0 0 0 0 0 0
0 0 0 0 0 0 0 0 0 0 0 0 0 0 0 0 0 0 0 0 0 0 0 0 0 0 0 0 0 0 0 0 0 0 0 0 0 0 0 0 0 0 0 0
0 0 0 0 0 0 0 0 0 0 0 0 0 0 0 0 0 0 0 0 0 0 0 0 0 0 0 0 0 0 0 0 0 0 0 0 0 0 0 0 0 0 0 0
Wind_Speed
1 2 4 7 5 4 1 1 1 1 5 7 7 5 4 5 3 1 1 2 3 5 5 6 6 6 5 4 4 4 4 3 3 2 2 2 3 3 4 4 6 5 4 4
3 4 9 6 3 1 1 2 1 1 4 5 6 4 2 2 2 4 5 5 6 5 5 6 6 5 5 5 5 5 5 4 3 2 1 1 1 2 2 3 4 5 6 6
4 6 4 3 3 1 1 4 5 4 4 5 4 1 2 2 2 5 7 7 7 8 8 7 7 6 6 6 6 5 5 5 3 2 1 2 2 3 3 4 4 5 7 7
3 4 3 3 5 3 3 6 9 10 6 1 1 1 4 2 2 5 6 6 7 8 8 7 6 6 6 5 5 5 5 4 3 3 2 1 0 2 3 3 3 6 6 7
5 3 2 3 5 4 4 5 7 8 6 4 2 2 4 2 4 6 6 7 8 9 9 8 6 6 5 4 4 4 4 3 2 2 2 1 1 2 3 3 4 5 5 6
5 3 3 4 3 6 9 7 7 5 4 3 1 1 3 4 6 5 6 7 8 8 7 5 3 4 3 3 4 4 3 2 2 1 1 2 3 3 3 4 4 4 4 5
7 5 2 2 3 3 5 6 3 4 4 1 2 1 6 6 7 7 8 7 7 5 4 4 5 4 4 4 3 3 3 2 2 2 2 3 3 2 2 3 3 3 3 3
3 6 5 2 2 3 3 7 6 3 3 1 2 3 7 6 6 6 7 6 4 3 4 5 5 5 4 4 3 3 2 2 2 2 3 2 2 1 2 3 3 4 3 4
3 4 5 3 2 3 3 2 5 7 4 3 2 4 7 4 3 4 4 4 4 5 6 6 5 5 4 4 3 3 3 2 2 3 2 2 2 3 3 4 4 4 4 4
3 1 5 4 6 5 5 4 6 6 4 2 1 3 5 5 6 4 4 6 6 5 5 5 5 4 4 3 3 3 3 3 3 3 3 3 3 4 4 4 5 5 5 5
3 3 5 5 2 1 3 3 5 4 6 6 3 5 7 9 7 7 7 8 8 7 6 5 5 4 4 3 3 3 3 3 4 4 4 4 4 5 5 5 6 6 5 6
2 5 2 5 5 2 3 4 6 5 0 4 4 6 3 8 8 9 8 7 7 7 6 5 5 4 3 3 3 4 4 4 5 5 4 5 5 5 5 6 7 6 7 7
4 6 4 9 11 7 1 2 5 7 5 4 5 4 2 5 6 7 8 8 7 7 6 4 4 3 4 4 5 5 5 5 5 5 4 5 5 5 6 7 7 6 7 7
6 5 6 5 7 6 4 2 4 6 5 4 6 7 4 6 7 7 7 8 7 7 6 4 3 4 4 5 5 5 6 5 5 4 4 5 6 6 6 6 6 6 6 7
5 3 2 4 5 4 5 4 2 5 8 7 7 9 9 10 10 9 8 7 6 6 5 4 4 4 4 5 5 6 5 5 4 4 5 6 6 6 5 6 6 6 6 7
3 2 1 5 6 7 6 4 1 3 4 7 8 5 7 6 5 6 7 7 6 5 4 4 3 3 4 5 5 5 5 5 4 5 6 6 5 5 5 6 6 6 7 7
3 4 2 4 7 5 5 3 2 3 3 8 6 7 6 5 7 7 7 7 6 6 5 4 4 4 5 5 5 5 5 4 4 5 5 5 4 5 6 7 7 7 7 7
7 5 4 1 4 2 9 5 4 6 3 5 7 6 7 7 5 5 7 8 7 7 6 4 4 4 4 4 4 4 4 4 4 5 4 4 5 6 6 7 7 8 7 7
7 8 4 3 1 6 8 4 4 6 2 4 8 7 7 6 3 2 6 8 8 7 6 5 5 4 3 4 4 3 4 4 4 4 5 5 5 7 7 8 8 8 7 8
4 5 6 4 3 5 9 5 5 9 1 5 7 8 8 8 2 6 8 7 7 7 5 4 3 2 3 4 3 2 4 4 5 5 6 6 6 7 8 9 9 8 7 8
2 2 2 4 5 8 7 4 4 3 9 9 9 9 9 9 9 8 7 8 7 7 5 4 3 2 3 3 2 2 4 4 5 5 5 6 6 7 8 8 7 8 8 9
3 2 3 3 2 7 7 3 6 10 7 8 9 9 9 10 8 7 9 9 8 7 5 4 3 2 3 3 1 3 4 5 5 5 6 7 7 8 8 8 9 8 8 9
2 6 6 7 9 10 7 9 9 8 8 9 10 10 10 10 9 10 9 9 8 7 6 4 4 3 3 3 2 3 5 4 4 5 6 7 8 8 7 8 8 8 7 6
6 2 2 4 8 8 8 7 5 8 10 11 11 11 11 11 11 10 9 8 8 7 6 4 3 2 3 3 3 4 4 3 4 5 7 7 8 8 8 6 6 6 7 7
7 4 3 5 8 6 6 7 8 8 8 8 9 10 12 12 10 11 9 9 8 7 5 5 4 4 4 4 4 4 3 2 4 6 6 7 7 8 8 8 7 7 8 8
5 5 4 7 9 6 8 8 7 7 8 9 9 9 8 11 11 11 10 9 8 7 6 5 5 4 4 4 4 4 3 2 4 5 6 6 6 7 7 8 9 10 11 14
Wind_Direction
235 105 243 233 203 194 122 90 67 319 37 51 56 63 36 15 23 304 254 171 176 178 182 178 180 175 167 162 148 142 130 118 97 70 53 36 355 340 341 346 349 346 333 318
11 280 252 242 239 255 104 118 181 23 69 77 73 53 6 350 283 248 226 204 195 195 190 194 197 192 187 180 172 161 152 142 132 133 143 164 252 302 310 326 338 343 335 321
196 247 271 305 307 310 250 183 184 161 87 58 90 59 286 263 241 235 223 209 197 190 194 209 204 196 188 183 179 167 163 151 146 133 90 24 8 349 345 335 332 330 328 323
252 260 309 312 286 186 236 214 175 157 136 122 119 178 267 262 264 229 227 211 204 203 203 209 200 187 186 187 174 159 156 156 156 138 119 132 281 288 278 286 303 316 326 331
261 247 250 241 242 168 192 167 144 138 125 101 24 139 272 233 226 226 223 216 213 214 206 206 198 185 175 163 149 149 149 161 176 172 169 179 256 256 279 307 326 328 327 334
259 246 213 218 212 144 133 95 79 75 84 73 272 157 267 228 218 222 226 223 222 218 209 197 169 137 122 115 125 140 147 180 210 211 216 220 260 284 313 326 327 322 319 323
332 326 299 160 85 91 120 107 58 17 29 333 287 310 260 246 230 220 224 229 230 216 174 140 126 118 123 128 141 153 157 198 237 243 263 268 273 280 290 289 291 302 308 309
339 318 310 315 154 165 166 134 146 181 182 225 297 266 265 267 249 232 229 228 215 145 126 129 139 142 150 156 156 157 167 213 249 260 275 285 263 238 260 268 271 280 275 274
203 272 303 314 29 83 54 45 152 122 96 100 257 278 297 284 258 222 205 173 145 139 138 143 150 154 161 161 165 171 178 219 254 254 254 256 245 255 264 273 275 278 276 280
184 253 317 328 38 27 123 131 73 85 115 106 233 234 229 225 218 196 164 150 154 154 151 152 162 171 174 174 176 179 187 212 233 240 246 243 250 259 261 267 275 276 276 279
81 107 321 354 34 345 20 45 90 102 135 138 193 256 227 198 186 164 166 168 169 170 169 176 182 186 184 182 187 199 220 233 242 242 241 251 259 262 262 260 261 261 263 268
58 106 335 298 291 240 171 169 138 127 179 132 146 261 277 163 162 156 165 175 178 175 181 186 188 197 204 210 219 228 237 243 243 237 236 243 253 260 262 261 260 257 258 260
92 88 37 347 341 342 338 188 153 130 115 125 137 241 258 142 151 165 170 180 184 186 188 192 203 223 232 233 238 243 247 249 246 239 237 249 260 263 262 262 262 262 261 262
108 105 147 194 241 270 296 298 152 122 132 165 173 175 194 174 177 191 189 189 190 192 192 197 222 245 251 247 247 248 253 253 250 245 247 258 263 262 263 266 268 268 266 265
99 130 234 254 282 318 307 305 170 151 168 161 177 173 202 199 194 197 195 188 178 185 191 196 213 238 254 260 261 258 258 261 254 252 257 261 264 267 271 276 276 276 274 274
100 150 3 323 317 326 316 310 118 139 131 128 133 185 215 201 189 189 182 169 171 180 186 193 208 241 263 268 269 266 261 261 253 254 261 267 275 280 282 283 282 282 278 274
146 132 107 290 313 356 321 281 131 127 143 148 166 193 187 184 190 185 174 163 171 184 192 205 227 246 259 266 265 262 259 264 267 267 272 281 288 292 291 295 296 287 281 276
150 133 137 214 13 310 257 259 145 120 94 136 141 165 175 175 172 174 170 170 186 193 201 221 237 251 260 263 267 266 267 276 281 284 288 290 293 294 294 294 291 287 279 277
153 144 141 138 209 275 289 279 158 122 67 151 145 158 160 150 108 251 209 190 192 198 202 215 225 230 253 274 274 278 288 293 296 295 293 288 291 295 297 297 293 288 284 281
104 115 132 156 191 246 256 258 135 99 163 220 165 166 166 147 144 250 225 200 195 197 199 207 218 230 275 282 286 292 296 300 296 292 291 290 291 293 295 292 290 287 282 280
26 47 160 201 224 256 245 219 107 125 231 214 186 181 174 179 200 213 195 193 194 192 194 185 185 231 265 275 286 295 296 288 282 289 295 297 296 295 290 288 288 289 287 286
198 190 224 178 208 261 243 196 180 214 211 195 192 189 186 198 206 193 183 187 185 183 185 180 189 243 268 272 269 288 284 276 285 296 302 301 300 299 305 297 294 290 286 288
206 194 192 186 213 233 224 210 215 185 185 199 196 197 184 185 192 186 185 183 184 184 189 191 193 235 272 269 233 259 269 278 294 306 306 303 303 299 294 292 293 296 291 284
287 243 191 265 267 257 249 243 230 195 198 203 196 190 180 185 188 183 179 181 183 186 190 188 189 227 261 257 245 242 263 278 298 304 303 303 304 304 302 296 287 288 288 287
254 291 306 284 283 302 290 250 233 222 214 208 204 195 190 184 183 179 179 182 185 188 191 182 189 216 242 247 249 252 257 285 301 300 299 303 299 300 303 299 290 284 275 267
241 232 220 245 248 225 250 256 244 228 225 214 204 208 201 184 181 176 179 181 181 185 182 181 193 212 237 239 240 248 250 265 293 300 302 301 301 301 300 303 305 294 281 282